Location: Reggio Emilia
(44.6990°N, 10.6297°E)
Time: 02:31:56
(UTC+01:00)

ISS - Pass Details

Date: 08 December 2021
Orbit: 413 x 422 km, 51.6° (Epoch: 23 January)

Event Time Altitude Azimuth Distance (km) Brightness Sun altitude
Rises 17:55:21 0° 294° (WNW) 2,383 0.8 -13.4°
Reaches altitude 10° 17:57:37 10° 283° (WNW) 1,512 0.0 -13.8°
Maximum altitude 18:00:36 29° 222° (SW) 807 -1.7 -14.3°
Drops below altitude 10° 18:03:34 10° 160° (SSE) 1,498 -1.0 -14.8°
Enters shadow 18:06:25 -2° 147° (SSE) 2,600 0.1 -15.3°
